Regional Weather Roundup
Issued by NWS

Home | Current Version | Previous Version | Graphics & Text | Print | Product List | Glossary On
Versions: 1 2 3 4 5 6 7 8 9 10 11 12 13 14 15 16 17 18 19 20 21 22 23 24 25 26 27 28 29 30 31 32 33 34 35 36 37 38 39 40 41 42 43 44 45 46 47 48 49 50
000
ASUS44 KMEG 160510
RWRTN
TENNESSEE HOURLY STATE WEATHER ROUNDUP
NATIONAL WEATHER SERVICE MEMPHIS TN
1200 AM CDT WED AUG 16 2017

TNZ002-004-019-021-049-052-054-088>092-160600-
WEST TENNESSEE

CITY           SKY/WX    TMP DP  RH WIND       PRES   REMARKS
MEMPHIS INTL   PTCLDY    81  76  84 SE3       29.92F
NWS MEMPHIS      N/A     78 N/A N/A MISG        N/A
JACKSON        CLEAR     74  74 100 CALM      29.95F
COVINGTON      MOCLDY    75  75 100 SE5       29.94F
UNION CITY     PTCLDY    72  72 100 CALM      29.94F
PARIS          MOCLDY    72  72 100 CALM      29.96S
LEXINGTON      CLOUDY    73  73 100 CALM      29.97S
SELMER         CLEAR     75  73  94 VRB5      29.96S
SAVANNAH       PTCLDY    75  73  94 CALM      29.96S
$$

TNZ008-025-027-028-033-062-065-066-160600-
NORTH MIDDLE TENNESSEE

CITY           SKY/WX    TMP DP  RH WIND       PRES   REMARKS
NASHVILLE      CLOUDY    76  71  85 CALM      30.00R
PORTLAND       CLOUDY    75  72  88 CALM      30.00R
CLARKSVILLE    CLEAR     72  69  90 CALM      29.99R
SMYRNA         CLOUDY    75  72  90 SE5       30.00S
COOKEVILLE       N/A     70  70 100 CALM      30.02R FOG
GALLATIN       CLOUDY    75  73  94 CALM      30.02R
CROSSVILLE     CLEAR     69  68  96 CALM      30.07R
$$

TNZ061-075-076-078-094-096-097-160600-
SOUTH MIDDLE TENNESSEE

CITY           SKY/WX    TMP DP  RH WIND       PRES   REMARKS
FAYETTEVILLE   CLEAR     75  72  88 S3        30.01S
TULLAHOMA      CLEAR     73  72  94 S3        30.03S
WINCHESTER     CLEAR     72  72 100 CALM      30.02S
MCMINNVILLE    MOCLDY    72  72 100 CALM      30.02S
COLUMBIA       CLOUDY    72  72 100 CALM      29.97F
SHELBYVILLE    CLEAR     72  72 100 CALM      30.00S FOG
$$

TNZ017-018-042-046-047-160600-
NORTHEAST TENNESSEE

CITY           SKY/WX    TMP DP  RH WIND       PRES   REMARKS
TRI CITIES     CLOUDY    73  72  96 CALM      30.05R
ELIZABETHTON   CLOUDY    72  70  94 CALM      30.05S
$$

TNZ012-013-036-069-073-074-160600-
CENTRAL EAST TENNESSEE

CITY           SKY/WX    TMP DP  RH WIND       PRES   REMARKS
KNOXVILLE      PTCLDY    75  71  87 SW6       30.01R
OAK RIDGE      CLEAR     75  71  87 CALM      30.02S
DOWNTOWN KNOXV   N/A     73  73 100 CALM      30.00S
GATLINBURG     CLEAR     73  68  83 CALM      30.01R
MORRISTOWN     CLOUDY    73  72  94 CALM      30.02S
JACKSBORO      CLEAR     72  70  94 CALM      30.06R FOG
$$

TNZ083-085-099-160600-
SOUTHEAST TENNESSEE

CITY           SKY/WX    TMP DP  RH WIND       PRES   REMARKS
CHATTANOOGA    PTCLDY    75  72  90 CALM      30.00S
DAYTON         PTCLDY    73  73 100 CALM      29.99F
$$

SKY/WX REPORTED AS FAIR MEANS FEW OR NO CLOUDS BELOW
12 THOUSAND FEET.




USA.gov is the U.S. government's official web portal to all federal, state and local government web resources and services.